• In Russia
  • List of Countries
  • For 7 days
  • Water Temperature
  • Weather Map
  • Weather Widgets
  • user-avatar
    Login

    Hourly Weather Siurowki

    Today, 15 September, Sunday

    Time Temperature Precipitation Wind Pressure Humidity
    00:00 +7°C° 0 mm 1 mps 703 mmHg 79%
    01:00 +7°C° 0 mm 1 mps 703 mmHg 80%
    02:00 +6°C° 0 mm 1 mps 703 mmHg 81%
    03:00 +6°C° 0 mm 1 mps 702 mmHg 81%
    04:00 +6°C° 0 mm 1 mps 702 mmHg 82%
    05:00 +7°C° 0 mm 1 mps 702 mmHg 79%
    06:00 +8°C° 0 mm 1 mps 702 mmHg 75%
    07:00 +9°C° 0 mm 1 mps 702 mmHg 71%
    08:00 +10°C° 0 mm 2 mps 702 mmHg 63%
    09:00 +14°C° 0 mm 2 mps 702 mmHg 56%
    10:00 +16°C° 0 mm 3 mps 702 mmHg 48%
    11:00 +17°C° 0 mm 3 mps 702 mmHg 46%
    12:00 +18°C° 0 mm 3 mps 702 mmHg 45%
    13:00 +19°C° 0 mm 4 mps 701 mmHg 43%
    14:00 +19°C° 0 mm 3 mps 701 mmHg 48%
    15:00 +18°C° 0 mm 3 mps 700 mmHg 53%
    16:00 +18°C° 0 mm 3 mps 699 mmHg 58%
    17:00 +16°C° 0 mm 3 mps 699 mmHg 64%
    18:00 +13°C° 0 mm 3 mps 699 mmHg 71%
    19:00 +11°C° 0 mm 3 mps 698 mmHg 78%
    20:00 +11°C° 0 mm 3 mps 698 mmHg 79%
    21:00 +10°C° 0 mm 3 mps 697 mmHg 80%
    22:00 +10°C° 0 mm 3 mps 697 mmHg 82%
    23:00 +10°C° 0 mm 3 mps 697 mmHg 82%

    Tomorrow, 16 September, Monday

    Time Temperature Precipitation Wind Pressure Humidity
    00:00 +10°C° 0 mm 2 mps 697 mmHg 82%
    01:00 +10°C° 0 mm 2 mps 697 mmHg 82%
    02:00 +10°C° 0 mm 2 mps 697 mmHg 84%
    03:00 +10°C° 0 mm 2 mps 697 mmHg 85%
    04:00 +10°C° 0 mm 2 mps 696 mmHg 87%
    05:00 +10°C° 0 mm 2 mps 696 mmHg 85%
    06:00 +12°C° 0 mm 1 mps 696 mmHg 84%
    07:00 +13°C° 0 mm 1 mps 697 mmHg 82%
    08:00 +14°C° 0 mm 1 mps 697 mmHg 76%
    09:00 +16°C° 0 mm 2 mps 697 mmHg 70%
    10:00 +17°C° 0 mm 2 mps 697 mmHg 64%
    11:00 +18°C° 0 mm 2 mps 697 mmHg 60%
    12:00 +19°C° 0 mm 3 mps 697 mmHg 56%
    13:00 +19°C° 0 mm 3 mps 697 mmHg 53%
    14:00 +19°C° 0 mm 2 mps 696 mmHg 58%
    15:00 +18°C° 0 mm 2 mps 696 mmHg 64%
    16:00 +18°C° 0 mm 1 mps 695 mmHg 69%
    17:00 +16°C° 0 mm 1 mps 695 mmHg 73%
    18:00 +14°C° 0 mm 1 mps 694 mmHg 77%
    19:00 +12°C° 0 mm 0 mps 694 mmHg 82%
    20:00 +13°C° 0 mm 1 mps 694 mmHg 80%
    21:00 +13°C° 0 mm 2 mps 694 mmHg 78%
    22:00 +13°C° 0 mm 2 mps 694 mmHg 77%
    23:00 +13°C° 0.3 mm 2 mps 693 mmHg 82%

    Day after tomorrow, 17 September, Tuesday

    Time Temperature Precipitation Wind Pressure Humidity
    00:00 +13°C° 0.3 mm 2 mps 693 mmHg 88%
    01:00 +12°C° 0.3 mm 2 mps 693 mmHg 93%
    02:00 +12°C° 1.2 mm 2 mps 693 mmHg 94%
    03:00 +10°C° 1.2 mm 2 mps 693 mmHg 95%
    04:00 +10°C° 1.2 mm 2 mps 693 mmHg 96%
    05:00 +10°C° 0.5 mm 2 mps 693 mmHg 95%
    06:00 +9°C° 0.5 mm 2 mps 693 mmHg 95%
    07:00 +9°C° 0.5 mm 2 mps 693 mmHg 94%
    08:00 +9°C° 0.1 mm 2 mps 693 mmHg 91%
    09:00 +9°C° 0.1 mm 2 mps 693 mmHg 88%
    10:00 +9°C° 0.1 mm 2 mps 694 mmHg 85%
    11:00 +10°C° 0 mm 3 mps 693 mmHg 79%
    12:00 +10°C° 0 mm 3 mps 693 mmHg 72%
    13:00 +11°C° 0 mm 4 mps 693 mmHg 66%
    14:00 +11°C° 0 mm 4 mps 693 mmHg 67%
    15:00 +11°C° 0 mm 4 mps 693 mmHg 67%
    16:00 +11°C° 0 mm 4 mps 692 mmHg 67%
    17:00 +10°C° 0 mm 3 mps 692 mmHg 69%
    18:00 +9°C° 0 mm 3 mps 692 mmHg 71%
    19:00 +8°C° 0 mm 2 mps 692 mmHg 73%
    20:00 +8°C° 0 mm 3 mps 692 mmHg 76%
    21:00 +7°C° 0 mm 3 mps 692 mmHg 78%
    22:00 +7°C° 0 mm 3 mps 693 mmHg 81%
    23:00 +5°C° 0.2 mm 4 mps 693 mmHg 83%

    18 September, Wednesday

    Time Temperature Precipitation Wind Pressure Humidity
    00:00 +5°C° 0.2 mm 4 mps 693 mmHg 85%
    01:00 +4°C° 0.2 mm 4 mps 693 mmHg 87%
    02:00 +3°C° 0.1 mm 4 mps 693 mmHg 88%
    03:00 +3°C° 0.1 mm 3 mps 693 mmHg 90%
    04:00 +2°C° 0.1 mm 3 mps 693 mmHg 91%
    05:00 +2°C° 0 mm 3 mps 694 mmHg 89%
    06:00 +2°C° 0 mm 3 mps 694 mmHg 88%
    07:00 +3°C° 0 mm 4 mps 694 mmHg 86%
    08:00 +3°C° 0 mm 4 mps 695 mmHg 83%
    09:00 +4°C° 0 mm 4 mps 696 mmHg 79%
    10:00 +5°C° 0 mm 4 mps 696 mmHg 75%
    11:00 +5°C° 0 mm 4 mps 696 mmHg 71%
    12:00 +6°C° 0 mm 4 mps 696 mmHg 68%
    13:00 +6°C° 0 mm 4 mps 696 mmHg 64%
    14:00 +7°C° 0.1 mm 4 mps 696 mmHg 64%
    15:00 +8°C° 0.1 mm 3 mps 696 mmHg 64%
    16:00 +8°C° 0.1 mm 3 mps 696 mmHg 65%
    17:00 +7°C° 0.1 mm 2 mps 696 mmHg 72%
    18:00 +5°C° 0.1 mm 2 mps 696 mmHg 78%
    19:00 +5°C° 0.1 mm 1 mps 696 mmHg 85%
    20:00 +4°C° 0.1 mm 1 mps 696 mmHg 87%
    21:00 +3°C° 0.1 mm 2 mps 697 mmHg 89%
    22:00 +3°C° 0.1 mm 2 mps 697 mmHg 91%
    23:00 +3°C° 0.1 mm 2 mps 697 mmHg 91%

    19 September, Thursday

    Time Temperature Precipitation Wind Pressure Humidity
    00:00 +4°C° 0.1 mm 1 mps 697 mmHg 91%
    01:00 +4°C° 0.1 mm 1 mps 698 mmHg 91%
    02:00 +3°C° 0.1 mm 1 mps 697 mmHg 92%
    03:00 +3°C° 0.1 mm 1 mps 697 mmHg 93%
    04:00 +3°C° 0.1 mm 1 mps 697 mmHg 94%
    05:00 +4°C° 0 mm 1 mps 698 mmHg 92%
    06:00 +4°C° 0 mm 1 mps 698 mmHg 90%
    07:00 +5°C° 0 mm 1 mps 698 mmHg 88%
    08:00 +5°C° 0.1 mm 2 mps 699 mmHg 82%
    09:00 +7°C° 0.1 mm 2 mps 699 mmHg 76%
    10:00 +8°C° 0.1 mm 3 mps 700 mmHg 70%
    11:00 +9°C° 0 mm 3 mps 700 mmHg 64%
    12:00 +9°C° 0 mm 3 mps 700 mmHg 58%
    13:00 +10°C° 0 mm 3 mps 700 mmHg 52%
    14:00 +10°C° 0.2 mm 3 mps 699 mmHg 56%
    15:00 +9°C° 0.2 mm 3 mps 699 mmHg 61%
    16:00 +9°C° 0.2 mm 3 mps 699 mmHg 66%
    17:00 +7°C° 0.3 mm 2 mps 699 mmHg 73%
    18:00 +6°C° 0.3 mm 2 mps 699 mmHg 81%
    19:00 +5°C° 0.3 mm 1 mps 699 mmHg 88%
    20:00 +5°C° 0.1 mm 1 mps 699 mmHg 90%
    21:00 +4°C° 0.1 mm 1 mps 700 mmHg 91%
    22:00 +4°C° 0.1 mm 1 mps 700 mmHg 93%
    23:00 +3°C° 0.1 mm 1 mps 700 mmHg 93%

    20 September, Friday

    Time Temperature Precipitation Wind Pressure Humidity
    00:00 +3°C° 0.1 mm 1 mps 700 mmHg 94%
    01:00 +3°C° 0.1 mm 1 mps 700 mmHg 94%
    02:00 +3°C° 0 mm 1 mps 700 mmHg 95%
    03:00 +2°C° 0 mm 1 mps 700 mmHg 95%
    04:00 +2°C° 0 mm 1 mps 700 mmHg 95%
    05:00 +2°C° 0 mm 1 mps 701 mmHg 94%
    06:00 +3°C° 0 mm 1 mps 701 mmHg 93%
    07:00 +4°C° 0 mm 1 mps 701 mmHg 91%
    08:00 +5°C° 0 mm 1 mps 702 mmHg 81%
    09:00 +5°C° 0 mm 2 mps 702 mmHg 70%
    10:00 +7°C° 0 mm 2 mps 703 mmHg 59%
    11:00 +7°C° 0 mm 2 mps 703 mmHg 56%
    12:00 +8°C° 0 mm 2 mps 703 mmHg 54%
    13:00 +8°C° 0 mm 2 mps 702 mmHg 51%
    14:00 +8°C° 0 mm 2 mps 702 mmHg 53%
    15:00 +8°C° 0 mm 2 mps 702 mmHg 55%
    16:00 +8°C° 0 mm 2 mps 702 mmHg 57%
    17:00 +6°C° 0 mm 2 mps 702 mmHg 62%
    18:00 +5°C° 0 mm 2 mps 702 mmHg 68%
    19:00 +4°C° 0 mm 1 mps 702 mmHg 74%
    20:00 +4°C° 0 mm 1 mps 702 mmHg 74%
    21:00 +3°C° 0 mm 1 mps 702 mmHg 75%
    22:00 +3°C° 0 mm 1 mps 702 mmHg 76%
    23:00 +3°C° 0 mm 1 mps 702 mmHg 77%
    Show more